owner,sensor,date,latitude,longitude,air_pressure(mBar),qcFlag 
DISL,ioos:station:DISL:MHPA:1,2019-02-01T00:03:00Z,30.6671,-87.9365,1025.398892,1111122 
DISL,ioos:station:DISL:MHPA:1,2019-02-01T01:03:00Z,30.6671,-87.9365,1026.07617,1111122 
DISL,ioos:station:DISL:MHPA:1,2019-02-01T02:03:00Z,30.6671,-87.9365,1025.737531,1111122 
DISL,ioos:station:DISL:MHPA:1,2019-02-01T03:03:00Z,30.6671,-87.9365,1026.07617,1111122 
DISL,ioos:station:DISL:MHPA:1,2019-02-01T04:03:00Z,30.6671,-87.9365,1025.398892,1111122 
DISL,ioos:station:DISL:MHPA:1,2019-02-01T05:03:00Z,30.6671,-87.9365,1025.060253,1111122 
DISL,ioos:station:DISL:MHPA:1,2019-02-01T06:03:00Z,30.6671,-87.9365,1025.398892,1111122 
DISL,ioos:station:DISL:MHPA:1,2019-02-01T07:03:00Z,30.6671,-87.9365,1024.721614,1111122 
DISL,ioos:station:DISL:MHPA:1,2019-02-01T07:33:00Z,30.6671,-87.9365,1024.721614,1111122 
DISL,ioos:station:DISL:MHPA:1,2019-02-01T09:03:00Z,30.6671,-87.9365,1025.398892,1111122 
DISL,ioos:station:DISL:MHPA:1,2019-02-01T10:03:00Z,30.6671,-87.9365,1024.044336,1111122 
DISL,ioos:station:DISL:MHPA:1,2019-02-01T11:03:00Z,30.6671,-87.9365,1024.044336,1111122 
DISL,ioos:station:DISL:MHPA:1,2019-02-01T12:03:00Z,30.6671,-87.9365,1025.060253,1111122 
DISL,ioos:station:DISL:MHPA:1,2019-02-01T13:03:00Z,30.6671,-87.9365,1025.060253,1111122 
DISL,ioos:station:DISL:MHPA:1,2019-02-01T14:03:00Z,30.6671,-87.9365,1025.060253,1111122 
DISL,ioos:station:DISL:MHPA:1,2019-02-01T15:03:00Z,30.6671,-87.9365,1025.737531,1111122 
DISL,ioos:station:DISL:MHPA:1,2019-02-01T16:03:00Z,30.6671,-87.9365,1024.721614,1111122 
DISL,ioos:station:DISL:MHPA:1,2019-02-01T17:03:00Z,30.6671,-87.9365,1025.060253,1111122 
DISL,ioos:station:DISL:MHPA:1,2019-02-01T18:03:00Z,30.6671,-87.9365,1024.382975,1111122 
DISL,ioos:station:DISL:MHPA:1,2019-02-01T19:03:00Z,30.6671,-87.9365,1024.044336,1111122 
DISL,ioos:station:DISL:MHPA:1,2019-02-01T20:03:00Z,30.6671,-87.9365,1024.044336,1111122 
DISL,ioos:station:DISL:MHPA:1,2019-02-01T21:03:00Z,30.6671,-87.9365,1023.367058,1111122 
DISL,ioos:station:DISL:MHPA:1,2019-02-01T22:03:00Z,30.6671,-87.9365,1023.367058,1111122 
DISL,ioos:station:DISL:MHPA:1,2019-02-01T23:03:00Z,30.6671,-87.9365,1023.705697,1111122 
DISL,ioos:station:DISL:MHPA:1,2019-02-02T00:03:00Z,30.6671,-87.9365,1024.382975,1111122 
DISL,ioos:station:DISL:MHPA:1,2019-02-02T01:03:00Z,30.6671,-87.9365,1024.382975,1111122 
DISL,ioos:station:DISL:MHPA:1,2019-02-02T02:03:00Z,30.6671,-87.9365,1024.044336,1111122 
DISL,ioos:station:DISL:MHPA:1,2019-02-02T03:03:00Z,30.6671,-87.9365,1023.367058,1111122 
DISL,ioos:station:DISL:MHPA:1,2019-02-02T04:03:00Z,30.6671,-87.9365,1023.705697,1111122 
DISL,ioos:station:DISL:MHPA:1,2019-02-02T05:03:00Z,30.6671,-87.9365,1024.382975,1111122 
DISL,ioos:station:DISL:MHPA:1,2019-02-02T06:03:00Z,30.6671,-87.9365,1023.367058,1111122 
DISL,ioos:station:DISL:MHPA:1,2019-02-02T07:03:00Z,30.6671,-87.9365,1023.367058,1111122 
DISL,ioos:station:DISL:MHPA:1,2019-02-02T08:03:00Z,30.6671,-87.9365,1023.367058,1111122 
DISL,ioos:station:DISL:MHPA:1,2019-02-02T09:03:00Z,30.6671,-87.9365,1022.351141,1111122 
DISL,ioos:station:DISL:MHPA:1,2019-02-02T10:03:00Z,30.6671,-87.9365,1022.68978,1111122 
DISL,ioos:station:DISL:MHPA:1,2019-02-02T11:03:00Z,30.6671,-87.9365,1022.012502,1111122 
DISL,ioos:station:DISL:MHPA:1,2019-02-02T12:03:00Z,30.6671,-87.9365,1022.68978,1111122 
DISL,ioos:station:DISL:MHPA:1,2019-02-02T13:03:00Z,30.6671,-87.9365,1023.028419,1111122 
DISL,ioos:station:DISL:MHPA:1,2019-02-02T14:03:00Z,30.6671,-87.9365,1023.028419,1111122 
DISL,ioos:station:DISL:MHPA:1,2019-02-02T15:03:00Z,30.6671,-87.9365,1023.028419,1111122 
DISL,ioos:station:DISL:MHPA:1,2019-02-02T16:03:00Z,30.6671,-87.9365,1023.705697,1111122 
DISL,ioos:station:DISL:MHPA:1,2019-02-02T17:03:00Z,30.6671,-87.9365,1022.351141,1111122 
DISL,ioos:station:DISL:MHPA:1,2019-02-02T18:03:00Z,30.6671,-87.9365,1022.012502,1111122 
DISL,ioos:station:DISL:MHPA:1,2019-02-02T19:03:00Z,30.6671,-87.9365,1020.319307,1111122 
DISL,ioos:station:DISL:MHPA:1,2019-02-02T20:03:00Z,30.6671,-87.9365,1019.980668,1111122 
DISL,ioos:station:DISL:MHPA:1,2019-02-02T21:03:00Z,30.6671,-87.9365,1019.980668,1111122 
DISL,ioos:station:DISL:MHPA:1,2019-02-02T22:03:00Z,30.6671,-87.9365,1019.30339,1111122 
DISL,ioos:station:DISL:MHPA:1,2019-02-02T23:03:00Z,30.6671,-87.9365,1018.964751,1111122 
DISL,ioos:station:DISL:MHPA:1,2019-02-03T00:03:00Z,30.6671,-87.9365,1019.30339,1111122 
DISL,ioos:station:DISL:MHPA:1,2019-02-03T01:03:00Z,30.6671,-87.9365,1019.30339,1111122 
DISL,ioos:station:DISL:MHPA:1,2019-02-03T02:03:00Z,30.6671,-87.9365,1019.30339,1111122 
DISL,ioos:station:DISL:MHPA:1,2019-02-03T03:03:00Z,30.6671,-87.9365,1019.642029,1111122 
DISL,ioos:station:DISL:MHPA:1,2019-02-03T04:03:00Z,30.6671,-87.9365,1019.642029,1111122 
DISL,ioos:station:DISL:MHPA:1,2019-02-03T05:03:00Z,30.6671,-87.9365,1018.964751,1111122 
DISL,ioos:station:DISL:MHPA:1,2019-02-03T06:03:00Z,30.6671,-87.9365,1018.626112,1111122 
DISL,ioos:station:DISL:MHPA:1,2019-02-03T07:03:00Z,30.6671,-87.9365,1018.287473,1111122 
DISL,ioos:station:DISL:MHPA:1,2019-02-03T08:03:00Z,30.6671,-87.9365,1018.287473,1111122 
DISL,ioos:station:DISL:MHPA:1,2019-02-03T09:03:00Z,30.6671,-87.9365,1017.948834,1111122 
DISL,ioos:station:DISL:MHPA:1,2019-02-03T10:03:00Z,30.6671,-87.9365,1017.271556,1111122 
DISL,ioos:station:DISL:MHPA:1,2019-02-03T11:03:00Z,30.6671,-87.9365,1017.271556,1111122 
DISL,ioos:station:DISL:MHPA:1,2019-02-03T12:03:00Z,30.6671,-87.9365,1018.287473,1111122 
DISL,ioos:station:DISL:MHPA:1,2019-02-03T13:03:00Z,30.6671,-87.9365,1017.948834,1111122 
DISL,ioos:station:DISL:MHPA:1,2019-02-03T14:03:00Z,30.6671,-87.9365,1018.287473,1111122 
DISL,ioos:station:DISL:MHPA:1,2019-02-03T15:03:00Z,30.6671,-87.9365,1018.964751,1111122 
DISL,ioos:station:DISL:MHPA:1,2019-02-03T16:03:00Z,30.6671,-87.9365,1018.964751,1111122 
DISL,ioos:station:DISL:MHPA:1,2019-02-03T17:03:00Z,30.6671,-87.9365,1018.626112,1111122 
DISL,ioos:station:DISL:MHPA:1,2019-02-03T18:03:00Z,30.6671,-87.9365,1018.287473,1111122 
DISL,ioos:station:DISL:MHPA:1,2019-02-03T19:03:00Z,30.6671,-87.9365,1016.932917,1111122 
DISL,ioos:station:DISL:MHPA:1,2019-02-03T20:03:00Z,30.6671,-87.9365,1016.932917,1111122 
DISL,ioos:station:DISL:MHPA:1,2019-02-03T21:03:00Z,30.6671,-87.9365,1016.255639,1111122 
DISL,ioos:station:DISL:MHPA:1,2019-02-03T22:03:00Z,30.6671,-87.9365,1016.255639,1111122 
DISL,ioos:station:DISL:MHPA:1,2019-02-03T23:03:00Z,30.6671,-87.9365,1015.578361,1111122 
DISL,ioos:station:DISL:MHPA:1,2019-02-04T00:03:00Z,30.6671,-87.9365,1016.932917,1111122 
DISL,ioos:station:DISL:MHPA:1,2019-02-04T01:03:00Z,30.6671,-87.9365,1017.610195,1111122 
DISL,ioos:station:DISL:MHPA:1,2019-02-04T02:03:00Z,30.6671,-87.9365,1018.287473,1111122 
DISL,ioos:station:DISL:MHPA:1,2019-02-04T03:03:00Z,30.6671,-87.9365,1017.271556,1111122 
DISL,ioos:station:DISL:MHPA:1,2019-02-04T04:03:00Z,30.6671,-87.9365,1017.948834,1111122 
DISL,ioos:station:DISL:MHPA:1,2019-02-04T05:03:00Z,30.6671,-87.9365,1017.610195,1111122 
DISL,ioos:station:DISL:MHPA:1,2019-02-04T06:03:00Z,30.6671,-87.9365,1017.271556,1111122 
DISL,ioos:station:DISL:MHPA:1,2019-02-04T07:03:00Z,30.6671,-87.9365,1017.610195,1111122 
DISL,ioos:station:DISL:MHPA:1,2019-02-04T08:03:00Z,30.6671,-87.9365,1016.255639,1111122 
DISL,ioos:station:DISL:MHPA:1,2019-02-04T09:03:00Z,30.6671,-87.9365,1016.255639,1111122 
DISL,ioos:station:DISL:MHPA:1,2019-02-04T10:03:00Z,30.6671,-87.9365,1016.932917,1111122 
DISL,ioos:station:DISL:MHPA:1,2019-02-04T11:03:00Z,30.6671,-87.9365,1016.594278,1111122 
DISL,ioos:station:DISL:MHPA:1,2019-02-04T12:03:00Z,30.6671,-87.9365,1016.932917,1111122 
DISL,ioos:station:DISL:MHPA:1,2019-02-04T13:03:00Z,30.6671,-87.9365,1017.948834,1111122 
DISL,ioos:station:DISL:MHPA:1,2019-02-04T14:03:00Z,30.6671,-87.9365,1018.287473,1111122 
DISL,ioos:station:DISL:MHPA:1,2019-02-04T15:03:00Z,30.6671,-87.9365,1017.948834,1111122 
DISL,ioos:station:DISL:MHPA:1,2019-02-04T16:03:00Z,30.6671,-87.9365,1018.626112,1111122 
DISL,ioos:station:DISL:MHPA:1,2019-02-04T17:03:00Z,30.6671,-87.9365,1019.30339,1111122 
DISL,ioos:station:DISL:MHPA:1,2019-02-04T18:03:00Z,30.6671,-87.9365,1017.610195,1111122 
DISL,ioos:station:DISL:MHPA:1,2019-02-04T19:03:00Z,30.6671,-87.9365,1016.594278,1111122 
DISL,ioos:station:DISL:MHPA:1,2019-02-04T20:03:00Z,30.6671,-87.9365,1016.594278,1111122 
DISL,ioos:station:DISL:MHPA:1,2019-02-04T21:03:00Z,30.6671,-87.9365,1016.594278,1111122 
DISL,ioos:station:DISL:MHPA:1,2019-02-04T22:03:00Z,30.6671,-87.9365,1016.932917,1111122 
DISL,ioos:station:DISL:MHPA:1,2019-02-04T23:03:00Z,30.6671,-87.9365,1017.271556,1111122 
DISL,ioos:station:DISL:MHPA:1,2019-02-05T00:03:00Z,30.6671,-87.9365,1016.594278,1111122 
DISL,ioos:station:DISL:MHPA:1,2019-02-05T01:03:00Z,30.6671,-87.9365,1017.271556,1111122 
DISL,ioos:station:DISL:MHPA:1,2019-02-05T02:03:00Z,30.6671,-87.9365,1017.271556,1111122 
DISL,ioos:station:DISL:MHPA:1,2019-02-05T03:03:00Z,30.6671,-87.9365,1017.610195,1111122 
DISL,ioos:station:DISL:MHPA:1,2019-02-05T04:03:00Z,30.6671,-87.9365,1017.610195,1111122 
DISL,ioos:station:DISL:MHPA:1,2019-02-05T05:03:00Z,30.6671,-87.9365,1017.271556,1111122 
DISL,ioos:station:DISL:MHPA:1,2019-02-05T06:03:00Z,30.6671,-87.9365,1016.932917,1111122 
DISL,ioos:station:DISL:MHPA:1,2019-02-05T07:03:00Z,30.6671,-87.9365,1016.594278,1111122 
DISL,ioos:station:DISL:MHPA:1,2019-02-05T08:03:00Z,30.6671,-87.9365,1017.271556,1111122 
DISL,ioos:station:DISL:MHPA:1,2019-02-05T09:02:00Z,30.6671,-87.9365,1016.932917,1111122 
DISL,ioos:station:DISL:MHPA:1,2019-02-05T10:02:00Z,30.6671,-87.9365,1017.271556,1111122 
DISL,ioos:station:DISL:MHPA:1,2019-02-05T11:02:00Z,30.6671,-87.9365,1017.610195,1111122 
DISL,ioos:station:DISL:MHPA:1,2019-02-05T12:02:00Z,30.6671,-87.9365,1018.964751,1111122 
DISL,ioos:station:DISL:MHPA:1,2019-02-05T13:02:00Z,30.6671,-87.9365,1019.642029,1111122 
DISL,ioos:station:DISL:MHPA:1,2019-02-05T14:02:00Z,30.6671,-87.9365,1019.980668,1111122 
DISL,ioos:station:DISL:MHPA:1,2019-02-05T15:02:00Z,30.6671,-87.9365,1020.996585,1111122 
DISL,ioos:station:DISL:MHPA:1,2019-02-05T16:02:00Z,30.6671,-87.9365,1020.996585,1111122 
DISL,ioos:station:DISL:MHPA:1,2019-02-05T17:02:00Z,30.6671,-87.9365,1020.657946,1111122 
DISL,ioos:station:DISL:MHPA:1,2019-02-05T18:02:00Z,30.6671,-87.9365,1019.642029,1111122 
DISL,ioos:station:DISL:MHPA:1,2019-02-06T09:02:00Z,30.6671,-87.9365,1019.642029,1111122 
DISL,ioos:station:DISL:MHPA:1,2019-02-06T10:02:00Z,30.6671,-87.9365,1019.30339,1111122 
DISL,ioos:station:DISL:MHPA:1,2019-02-06T11:02:00Z,30.6671,-87.9365,1018.964751,1111122 
DISL,ioos:station:DISL:MHPA:1,2019-02-06T12:02:00Z,30.6671,-87.9365,1018.964751,1111122 
DISL,ioos:station:DISL:MHPA:1,2019-02-06T13:02:00Z,30.6671,-87.9365,1019.30339,1111122 
DISL,ioos:station:DISL:MHPA:1,2019-02-06T14:02:00Z,30.6671,-87.9365,1020.319307,1111122 
DISL,ioos:station:DISL:MHPA:1,2019-02-06T15:02:00Z,30.6671,-87.9365,1020.657946,1111122 
DISL,ioos:station:DISL:MHPA:1,2019-02-06T16:02:00Z,30.6671,-87.9365,1020.996585,1111122 
DISL,ioos:station:DISL:MHPA:1,2019-02-06T17:02:00Z,30.6671,-87.9365,1020.657946,1111122 
DISL,ioos:station:DISL:MHPA:1,2019-02-06T18:02:00Z,30.6671,-87.9365,1020.657946,1111122 
DISL,ioos:station:DISL:MHPA:1,2019-02-06T19:02:00Z,30.6671,-87.9365,1019.980668,1111122 
DISL,ioos:station:DISL:MHPA:1,2019-02-06T20:02:00Z,30.6671,-87.9365,1019.30339,1111122 
DISL,ioos:station:DISL:MHPA:1,2019-02-06T21:02:00Z,30.6671,-87.9365,1019.642029,1111122 
DISL,ioos:station:DISL:MHPA:1,2019-02-06T23:02:00Z,30.6671,-87.9365,1018.626112,1111122 
DISL,ioos:station:DISL:MHPA:1,2019-02-07T00:02:00Z,30.6671,-87.9365,1019.30339,1111122 
DISL,ioos:station:DISL:MHPA:1,2019-02-07T01:02:00Z,30.6671,-87.9365,1019.642029,1111122 
DISL,ioos:station:DISL:MHPA:1,2019-02-07T02:02:00Z,30.6671,-87.9365,1019.30339,1111122 
DISL,ioos:station:DISL:MHPA:1,2019-02-07T03:02:00Z,30.6671,-87.9365,1018.964751,1111122 
DISL,ioos:station:DISL:MHPA:1,2019-02-07T04:02:00Z,30.6671,-87.9365,1018.964751,1111122 
DISL,ioos:station:DISL:MHPA:1,2019-02-07T05:02:00Z,30.6671,-87.9365,1019.30339,1111122 
DISL,ioos:station:DISL:MHPA:1,2019-02-07T06:02:00Z,30.6671,-87.9365,1019.30339,1111122 
DISL,ioos:station:DISL:MHPA:1,2019-02-07T07:02:00Z,30.6671,-87.9365,1018.626112,1111122 
DISL,ioos:station:DISL:MHPA:1,2019-02-07T08:02:00Z,30.6671,-87.9365,1017.948834,1111122 
DISL,ioos:station:DISL:MHPA:1,2019-02-07T09:02:00Z,30.6671,-87.9365,1018.626112,1111122 
DISL,ioos:station:DISL:MHPA:1,2019-02-07T10:02:00Z,30.6671,-87.9365,1018.626112,1111122 
DISL,ioos:station:DISL:MHPA:1,2019-02-07T11:02:00Z,30.6671,-87.9365,1018.626112,1111122 
DISL,ioos:station:DISL:MHPA:1,2019-02-07T12:02:00Z,30.6671,-87.9365,1018.626112,1111122 
DISL,ioos:station:DISL:MHPA:1,2019-02-07T13:02:00Z,30.6671,-87.9365,1018.626112,1111122 
DISL,ioos:station:DISL:MHPA:1,2019-02-07T14:02:00Z,30.6671,-87.9365,1018.964751,1111122 
DISL,ioos:station:DISL:MHPA:1,2019-02-07T15:02:00Z,30.6671,-87.9365,1019.980668,1111122 
DISL,ioos:station:DISL:MHPA:1,2019-02-07T16:02:00Z,30.6671,-87.9365,1020.657946,1111122 
DISL,ioos:station:DISL:MHPA:1,2019-02-07T17:02:00Z,30.6671,-87.9365,1020.657946,1111122 
DISL,ioos:station:DISL:MHPA:1,2019-02-07T18:02:00Z,30.6671,-87.9365,1020.657946,1111122 
DISL,ioos:station:DISL:MHPA:1,2019-02-07T19:02:00Z,30.6671,-87.9365,1019.642029,1111122 
DISL,ioos:station:DISL:MHPA:1,2019-02-07T20:02:00Z,30.6671,-87.9365,1018.964751,1111122 
DISL,ioos:station:DISL:MHPA:1,2019-02-07T21:02:00Z,30.6671,-87.9365,1019.30339,1111122 
DISL,ioos:station:DISL:MHPA:1,2019-02-07T22:02:00Z,30.6671,-87.9365,1018.287473,1111122 
DISL,ioos:station:DISL:MHPA:1,2019-02-07T23:02:00Z,30.6671,-87.9365,1018.287473,1111122 
DISL,ioos:station:DISL:MHPA:1,2019-02-08T00:02:00Z,30.6671,-87.9365,1019.642029,1111122 
DISL,ioos:station:DISL:MHPA:1,2019-02-08T01:02:00Z,30.6671,-87.9365,1019.642029,1111122 
DISL,ioos:station:DISL:MHPA:1,2019-02-08T02:02:00Z,30.6671,-87.9365,1019.642029,1111122 
DISL,ioos:station:DISL:MHPA:1,2019-02-08T03:02:00Z,30.6671,-87.9365,1019.980668,1111122 
DISL,ioos:station:DISL:MHPA:1,2019-02-08T04:02:00Z,30.6671,-87.9365,1020.319307,1111122 
DISL,ioos:station:DISL:MHPA:1,2019-02-08T05:02:00Z,30.6671,-87.9365,1021.335224,1111122 
DISL,ioos:station:DISL:MHPA:1,2019-02-08T06:02:00Z,30.6671,-87.9365,1020.996585,1111122 
DISL,ioos:station:DISL:MHPA:1,2019-02-08T07:02:00Z,30.6671,-87.9365,1022.351141,1111122 
DISL,ioos:station:DISL:MHPA:1,2019-02-08T08:02:00Z,30.6671,-87.9365,1023.367058,1111122 
DISL,ioos:station:DISL:MHPA:1,2019-02-08T09:02:00Z,30.6671,-87.9365,1024.044336,1111122 
DISL,ioos:station:DISL:MHPA:1,2019-02-08T10:02:00Z,30.6671,-87.9365,1024.721614,1111122 
DISL,ioos:station:DISL:MHPA:1,2019-02-08T11:02:00Z,30.6671,-87.9365,1025.398892,1111122 
DISL,ioos:station:DISL:MHPA:1,2019-02-08T12:02:00Z,30.6671,-87.9365,1026.07617,1111122 
DISL,ioos:station:DISL:MHPA:1,2019-02-08T13:02:00Z,30.6671,-87.9365,1027.430726,1111122 
DISL,ioos:station:DISL:MHPA:1,2019-02-08T14:02:00Z,30.6671,-87.9365,1027.769365,1111122 
DISL,ioos:station:DISL:MHPA:1,2019-02-08T15:02:00Z,30.6671,-87.9365,1029.801199,1111122 
DISL,ioos:station:DISL:MHPA:1,2019-02-08T16:02:00Z,30.6671,-87.9365,1030.139838,1111122 
DISL,ioos:station:DISL:MHPA:1,2019-02-08T17:02:00Z,30.6671,-87.9365,1030.139838,1111122 
DISL,ioos:station:DISL:MHPA:1,2019-02-08T18:02:00Z,30.6671,-87.9365,1029.801199,1111122 
DISL,ioos:station:DISL:MHPA:1,2019-02-08T19:02:00Z,30.6671,-87.9365,1029.801199,1111122 
DISL,ioos:station:DISL:MHPA:1,2019-02-08T20:02:00Z,30.6671,-87.9365,1028.446643,1111122 
DISL,ioos:station:DISL:MHPA:1,2019-02-08T21:02:00Z,30.6671,-87.9365,1027.430726,1111122 
DISL,ioos:station:DISL:MHPA:1,2019-02-08T22:02:00Z,30.6671,-87.9365,1028.446643,1111122 
DISL,ioos:station:DISL:MHPA:1,2019-02-08T23:02:00Z,30.6671,-87.9365,1029.123921,1111122 
DISL,ioos:station:DISL:MHPA:1,2019-02-09T00:03:00Z,30.6671,-87.9365,1029.801199,1111122 
DISL,ioos:station:DISL:MHPA:1,2019-02-09T01:02:00Z,30.6671,-87.9365,1030.478477,1111122 
DISL,ioos:station:DISL:MHPA:1,2019-02-09T02:02:00Z,30.6671,-87.9365,1032.171672,1111122 
DISL,ioos:station:DISL:MHPA:1,2019-02-09T03:02:00Z,30.6671,-87.9365,1032.84895,1111122 
DISL,ioos:station:DISL:MHPA:1,2019-02-09T04:02:00Z,30.6671,-87.9365,1032.171672,1111122 
DISL,ioos:station:DISL:MHPA:1,2019-02-09T05:02:00Z,30.6671,-87.9365,1032.84895,1111122 
DISL,ioos:station:DISL:MHPA:1,2019-02-09T06:02:00Z,30.6671,-87.9365,1032.510311,1111122 
DISL,ioos:station:DISL:MHPA:1,2019-02-09T07:03:00Z,30.6671,-87.9365,1032.510311,1111122 
DISL,ioos:station:DISL:MHPA:1,2019-02-09T08:03:00Z,30.6671,-87.9365,1032.171672,1111122 
DISL,ioos:station:DISL:MHPA:1,2019-02-09T09:03:00Z,30.6671,-87.9365,1032.171672,1111122 
DISL,ioos:station:DISL:MHPA:1,2019-02-09T10:02:00Z,30.6671,-87.9365,1031.494394,1111122 
DISL,ioos:station:DISL:MHPA:1,2019-02-09T11:02:00Z,30.6671,-87.9365,1031.494394,1111122 
DISL,ioos:station:DISL:MHPA:1,2019-02-09T12:02:00Z,30.6671,-87.9365,1032.171672,1111122 
DISL,ioos:station:DISL:MHPA:1,2019-02-09T13:03:00Z,30.6671,-87.9365,1033.187589,1111122 
DISL,ioos:station:DISL:MHPA:1,2019-02-09T14:02:00Z,30.6671,-87.9365,1033.864867,1111122 
DISL,ioos:station:DISL:MHPA:1,2019-02-09T15:03:00Z,30.6671,-87.9365,1034.880784,1111122 
DISL,ioos:station:DISL:MHPA:1,2019-02-09T16:03:00Z,30.6671,-87.9365,1034.203506,1111122 
DISL,ioos:station:DISL:MHPA:1,2019-02-09T17:02:00Z,30.6671,-87.9365,1032.84895,1111122 
DISL,ioos:station:DISL:MHPA:1,2019-02-09T18:02:00Z,30.6671,-87.9365,1032.171672,1111122 
DISL,ioos:station:DISL:MHPA:1,2019-02-09T19:02:00Z,30.6671,-87.9365,1031.155755,1111122 
DISL,ioos:station:DISL:MHPA:1,2019-02-09T20:02:00Z,30.6671,-87.9365,1030.478477,1111122 
DISL,ioos:station:DISL:MHPA:1,2019-02-09T21:03:00Z,30.6671,-87.9365,1029.801199,1111122 
DISL,ioos:station:DISL:MHPA:1,2019-02-09T22:03:00Z,30.6671,-87.9365,1030.139838,1111122 
DISL,ioos:station:DISL:MHPA:1,2019-02-09T23:03:00Z,30.6671,-87.9365,1029.801199,1111122 
DISL,ioos:station:DISL:MHPA:1,2019-02-10T00:03:00Z,30.6671,-87.9365,1030.139838,1111122 
DISL,ioos:station:DISL:MHPA:1,2019-02-10T01:03:00Z,30.6671,-87.9365,1031.155755,1111122 
DISL,ioos:station:DISL:MHPA:1,2019-02-10T02:03:00Z,30.6671,-87.9365,1031.155755,1111122 
DISL,ioos:station:DISL:MHPA:1,2019-02-10T03:03:00Z,30.6671,-87.9365,1030.817116,1111122 
DISL,ioos:station:DISL:MHPA:1,2019-02-10T04:03:00Z,30.6671,-87.9365,1031.155755,1111122 
DISL,ioos:station:DISL:MHPA:1,2019-02-10T05:03:00Z,30.6671,-87.9365,1029.801199,1111122 
DISL,ioos:station:DISL:MHPA:1,2019-02-10T06:03:00Z,30.6671,-87.9365,1028.785282,1111122 
DISL,ioos:station:DISL:MHPA:1,2019-02-10T07:03:00Z,30.6671,-87.9365,1029.123921,1111122 
DISL,ioos:station:DISL:MHPA:1,2019-02-10T08:03:00Z,30.6671,-87.9365,1028.108004,1111122 
DISL,ioos:station:DISL:MHPA:1,2019-02-10T09:03:00Z,30.6671,-87.9365,1028.446643,1111122 
DISL,ioos:station:DISL:MHPA:1,2019-02-10T10:03:00Z,30.6671,-87.9365,1027.769365,1111122 
DISL,ioos:station:DISL:MHPA:1,2019-02-10T11:03:00Z,30.6671,-87.9365,1028.108004,1111122 
DISL,ioos:station:DISL:MHPA:1,2019-02-10T12:03:00Z,30.6671,-87.9365,1027.430726,1111122 
DISL,ioos:station:DISL:MHPA:1,2019-02-10T13:03:00Z,30.6671,-87.9365,1027.769365,1111122 
DISL,ioos:station:DISL:MHPA:1,2019-02-10T14:03:00Z,30.6671,-87.9365,1029.123921,1111122 
DISL,ioos:station:DISL:MHPA:1,2019-02-10T15:03:00Z,30.6671,-87.9365,1028.785282,1111122 
DISL,ioos:station:DISL:MHPA:1,2019-02-10T16:03:00Z,30.6671,-87.9365,1028.108004,1111122 
DISL,ioos:station:DISL:MHPA:1,2019-02-10T17:03:00Z,30.6671,-87.9365,1028.785282,1111122 
DISL,ioos:station:DISL:MHPA:1,2019-02-10T18:03:00Z,30.6671,-87.9365,1028.108004,1111122 
DISL,ioos:station:DISL:MHPA:1,2019-02-10T19:03:00Z,30.6671,-87.9365,1026.07617,1111122 
DISL,ioos:station:DISL:MHPA:1,2019-02-10T20:03:00Z,30.6671,-87.9365,1025.398892,1111122 
DISL,ioos:station:DISL:MHPA:1,2019-02-10T21:03:00Z,30.6671,-87.9365,1024.721614,1111122 
DISL,ioos:station:DISL:MHPA:1,2019-02-10T22:03:00Z,30.6671,-87.9365,1025.060253,1111122 
DISL,ioos:station:DISL:MHPA:1,2019-02-10T23:03:00Z,30.6671,-87.9365,1025.060253,1111122 
DISL,ioos:station:DISL:MHPA:1,2019-02-11T00:03:00Z,30.6671,-87.9365,1024.044336,1111122 
DISL,ioos:station:DISL:MHPA:1,2019-02-11T01:03:00Z,30.6671,-87.9365,1024.382975,1111122 
DISL,ioos:station:DISL:MHPA:1,2019-02-11T02:03:00Z,30.6671,-87.9365,1024.721614,1111122 
DISL,ioos:station:DISL:MHPA:1,2019-02-11T03:03:00Z,30.6671,-87.9365,1024.044336,1111122 
DISL,ioos:station:DISL:MHPA:1,2019-02-11T04:03:00Z,30.6671,-87.9365,1024.382975,1111122 
DISL,ioos:station:DISL:MHPA:1,2019-02-11T05:03:00Z,30.6671,-87.9365,1023.705697,1111122 
DISL,ioos:station:DISL:MHPA:1,2019-02-11T06:03:00Z,30.6671,-87.9365,1023.028419,1111122 
DISL,ioos:station:DISL:MHPA:1,2019-02-11T07:03:00Z,30.6671,-87.9365,1023.028419,1111122 
DISL,ioos:station:DISL:MHPA:1,2019-02-11T08:03:00Z,30.6671,-87.9365,1022.351141,1111122 
DISL,ioos:station:DISL:MHPA:1,2019-02-11T09:03:00Z,30.6671,-87.9365,1021.673863,1111122 
DISL,ioos:station:DISL:MHPA:1,2019-02-11T10:03:00Z,30.6671,-87.9365,1020.996585,1111122 
DISL,ioos:station:DISL:MHPA:1,2019-02-11T11:03:00Z,30.6671,-87.9365,1020.657946,1111122 
DISL,ioos:station:DISL:MHPA:1,2019-02-11T12:03:00Z,30.6671,-87.9365,1019.980668,1111122 
DISL,ioos:station:DISL:MHPA:1,2019-02-11T13:03:00Z,30.6671,-87.9365,1019.980668,1111122 
DISL,ioos:station:DISL:MHPA:1,2019-02-11T14:03:00Z,30.6671,-87.9365,1020.319307,1111122 
DISL,ioos:station:DISL:MHPA:1,2019-02-11T15:03:00Z,30.6671,-87.9365,1019.980668,1111122 
DISL,ioos:station:DISL:MHPA:1,2019-02-11T16:03:00Z,30.6671,-87.9365,1018.626112,1111122 
DISL,ioos:station:DISL:MHPA:1,2019-02-11T17:03:00Z,30.6671,-87.9365,1017.948834,1111122 
DISL,ioos:station:DISL:MHPA:1,2019-02-11T18:03:00Z,30.6671,-87.9365,1017.610195,1111122 
DISL,ioos:station:DISL:MHPA:1,2019-02-11T19:03:00Z,30.6671,-87.9365,1015.917,1111122 
DISL,ioos:station:DISL:MHPA:1,2019-02-11T20:03:00Z,30.6671,-87.9365,1014.901083,1111122 
DISL,ioos:station:DISL:MHPA:1,2019-02-11T21:03:00Z,30.6671,-87.9365,1014.223805,1111122 
DISL,ioos:station:DISL:MHPA:1,2019-02-11T22:03:00Z,30.6671,-87.9365,1014.901083,1111122 
DISL,ioos:station:DISL:MHPA:1,2019-02-11T23:03:00Z,30.6671,-87.9365,1015.239722,1111122 
DISL,ioos:station:DISL:MHPA:1,2019-02-12T00:03:00Z,30.6671,-87.9365,1014.223805,1111122 
DISL,ioos:station:DISL:MHPA:1,2019-02-12T01:03:00Z,30.6671,-87.9365,1014.562444,1111122 
DISL,ioos:station:DISL:MHPA:1,2019-02-12T02:03:00Z,30.6671,-87.9365,1014.901083,1111122 
DISL,ioos:station:DISL:MHPA:1,2019-02-12T03:03:00Z,30.6671,-87.9365,1015.578361,1111122 
DISL,ioos:station:DISL:MHPA:1,2019-02-12T04:03:00Z,30.6671,-87.9365,1015.578361,1111122 
DISL,ioos:station:DISL:MHPA:1,2019-02-12T05:03:00Z,30.6671,-87.9365,1014.562444,1111122 
DISL,ioos:station:DISL:MHPA:1,2019-02-12T06:03:00Z,30.6671,-87.9365,1014.562444,1111122 
DISL,ioos:station:DISL:MHPA:1,2019-02-12T07:03:00Z,30.6671,-87.9365,1014.223805,1111122 
DISL,ioos:station:DISL:MHPA:1,2019-02-12T08:03:00Z,30.6671,-87.9365,1014.562444,1111122 
DISL,ioos:station:DISL:MHPA:1,2019-02-12T09:03:00Z,30.6671,-87.9365,1014.223805,1111122 
DISL,ioos:station:DISL:MHPA:1,2019-02-12T10:03:00Z,30.6671,-87.9365,1014.223805,1111122 
DISL,ioos:station:DISL:MHPA:1,2019-02-12T11:03:00Z,30.6671,-87.9365,1013.546527,1111122 
DISL,ioos:station:DISL:MHPA:1,2019-02-12T12:03:00Z,30.6671,-87.9365,1013.546527,1111122 
DISL,ioos:station:DISL:MHPA:1,2019-02-12T13:03:00Z,30.6671,-87.9365,1013.207888,1111122 
DISL,ioos:station:DISL:MHPA:1,2019-02-12T14:03:00Z,30.6671,-87.9365,1013.885166,1111122 
DISL,ioos:station:DISL:MHPA:1,2019-02-12T15:03:00Z,30.6671,-87.9365,1013.885166,1111122 
DISL,ioos:station:DISL:MHPA:1,2019-02-12T16:03:00Z,30.6671,-87.9365,1016.594278,1111122 
DISL,ioos:station:DISL:MHPA:1,2019-02-12T17:03:00Z,30.6671,-87.9365,1016.594278,1111122 
DISL,ioos:station:DISL:MHPA:1,2019-02-12T18:03:00Z,30.6671,-87.9365,1016.594278,1111122 
DISL,ioos:station:DISL:MHPA:1,2019-02-20T06:49:00Z,30.6671,-87.9365,1016.255639,1111122 
 